RADUGA-1 4 [-]

Last updated on July 6, 2021, 3:35 p.m. UTC

1 25642U 99010A   21186.94438689 -.00000355  00000-0  00000-0 0  9991
2 25642  15.0607  16.7526 0002102 340.9755  14.4595  1.00232289 81829
UTC
Height (km)
Latitude
Longitude
Inclination
Orbital Period
UTC large
Height (km)
Speed (km/s)
/
Latitude / Longitude
Inclination (degrees)
Orbital Period (minutes)
Azimuth
Elevation
Range (km)
Doppler Factor
iOS Compass Heading
iOS Angle